Time,TemperatureF,DewpointF,PressureIn,WindDirection,WindDirectionDegrees,WindSpeedMPH,WindSpeedGustMPH,Humidity,HourlyPrecipIn,Conditions,Clouds,dailyrainin,SolarRadiationWatts/m^2,SoftwareType,DateUTC
2013-11-30 00:01:00,56.0,45.0,-100.00,ENE,75,0.0,2.0,66,0.00,,,0.00,0.000000,,2013-11-30 07:01:00,
2013-11-30 00:42:00,54.0,46.0,-100.00,ENE,62,0.0,1.0,73,0.00,,,0.00,0.000000,,2013-11-30 07:42:00,
2013-11-30 00:52:00,54.0,46.0,-100.00,ENE,62,0.0,1.0,73,0.00,,,0.00,0.000000,,2013-11-30 07:52:00,
2013-11-30 01:01:00,54.0,46.0,-100.00,ENE,62,0.0,1.0,73,0.00,,,0.00,0.000000,,2013-11-30 08:01:00,
2013-11-30 01:42:00,55.0,44.0,-100.00,NNE,13,0.0,2.0,66,0.00,,,-99.99,0.000000,,2013-11-30 08:42:00,
2013-11-30 01:52:00,55.0,44.0,-100.00,NNE,13,0.0,2.0,66,0.00,,,-99.99,0.000000,,2013-11-30 08:52:00,
2013-11-30 02:02:00,55.0,44.0,-100.00,NNE,13,0.0,2.0,66,0.00,,,-99.99,0.000000,,2013-11-30 09:02:00,
2013-11-30 02:43:00,56.0,41.0,-100.00,North,358,1.0,7.0,56,0.00,,,0.00,0.000000,,2013-11-30 09:43:00,
2013-11-30 02:53:00,56.0,41.0,-100.00,North,358,1.0,7.0,56,0.00,,,0.00,0.000000,,2013-11-30 09:53:00,
2013-11-30 03:03:00,56.0,41.0,-100.00,North,358,1.0,7.0,56,0.00,,,0.00,0.000000,,2013-11-30 10:03:00,
2013-11-30 03:42:00,53.0,37.0,-100.00,SSW,210,1.0,8.0,55,0.00,,,0.00,0.000000,,2013-11-30 10:42:00,
2013-11-30 03:53:00,53.0,37.0,-100.00,SSW,210,1.0,8.0,55,0.00,,,0.00,0.000000,,2013-11-30 10:53:00,
2013-11-30 04:02:00,53.0,37.0,-100.00,SSW,210,1.0,8.0,55,0.00,,,0.00,0.000000,,2013-11-30 11:02:00,
2013-11-30 04:42:00,53.0,40.0,-100.00,East,86,0.0,4.0,62,0.00,,,0.00,0.000000,,2013-11-30 11:42:00,
2013-11-30 04:52:00,53.0,40.0,-100.00,East,86,0.0,4.0,62,0.00,,,0.00,0.000000,,2013-11-30 11:52:00,
2013-11-30 05:02:00,53.0,40.0,-100.00,East,86,0.0,4.0,62,0.00,,,0.00,0.000000,,2013-11-30 12:02:00,
2013-11-30 05:42:00,56.0,39.0,-100.00,ENE,73,2.0,5.0,53,0.00,,,0.00,0.000000,,2013-11-30 12:42:00,
2013-11-30 05:52:00,56.0,39.0,-100.00,ENE,73,2.0,5.0,53,0.00,,,0.00,0.000000,,2013-11-30 12:52:00,
2013-11-30 06:01:00,56.0,39.0,-100.00,ENE,73,2.0,5.0,53,0.00,,,0.00,0.000000,,2013-11-30 13:01:00,
2013-11-30 06:42:00,51.0,38.0,-100.00,ENE,68,1.0,4.0,61,0.00,,,-99.99,0.000000,,2013-11-30 13:42:00,
2013-11-30 06:52:00,51.0,38.0,-100.00,ENE,68,1.0,4.0,61,0.00,,,-99.99,0.000000,,2013-11-30 13:52:00,
2013-11-30 07:01:00,51.0,38.0,-100.00,ENE,68,1.0,4.0,61,0.00,,,-99.99,0.000000,,2013-11-30 14:01:00,
2013-11-30 07:42:00,55.0,39.0,-100.00,NNW,340,4.0,8.0,55,0.00,,,0.00,0.000000,,2013-11-30 14:42:00,
2013-11-30 07:52:00,55.0,39.0,-100.00,NNW,340,4.0,8.0,55,0.00,,,0.00,0.000000,,2013-11-30 14:52:00,
2013-11-30 08:02:00,55.0,39.0,-100.00,NNW,340,4.0,8.0,55,0.00,,,0.00,0.000000,,2013-11-30 15:02:00,
2013-11-30 08:43:00,54.0,38.0,-100.00,NNW,333,2.0,9.0,55,-99.99,,,0.00,0.000000,,2013-11-30 15:43:00,
2013-11-30 08:54:00,54.0,38.0,-100.00,NNW,333,2.0,9.0,55,-99.99,,,0.00,0.000000,,2013-11-30 15:54:00,
2013-11-30 09:03:00,54.0,38.0,-100.00,NNW,333,2.0,9.0,55,-99.99,,,0.00,0.000000,,2013-11-30 16:03:00,
2013-11-30 09:43:00,58.0,40.0,-100.00,NE,50,1.0,10.0,51,0.00,,,0.00,36.000000,,2013-11-30 16:43:00,
2013-11-30 09:53:00,58.0,40.0,-100.00,NE,50,1.0,10.0,51,0.00,,,0.00,36.000000,,2013-11-30 16:53:00,
2013-11-30 10:02:00,58.0,40.0,-100.00,NE,50,1.0,10.0,51,0.00,,,0.00,36.000000,,2013-11-30 17:02:00,
2013-11-30 10:42:00,62.0,41.0,-100.00,SE,143,1.0,3.0,46,0.00,,,0.00,244.000000,,2013-11-30 17:42:00,
2013-11-30 10:53:00,62.0,41.0,-100.00,SE,143,1.0,3.0,46,0.00,,,0.00,244.000000,,2013-11-30 17:53:00,
2013-11-30 11:01:00,62.0,41.0,-100.00,SE,143,1.0,3.0,46,0.00,,,0.00,244.000000,,2013-11-30 18:01:00,
2013-11-30 11:42:00,70.0,37.0,-100.00,NNW,348,5.0,9.0,30,0.00,,,0.00,467.000000,,2013-11-30 18:42:00,
2013-11-30 11:52:00,70.0,37.0,-100.00,NNW,348,5.0,9.0,30,0.00,,,0.00,467.000000,,2013-11-30 18:52:00,
2013-11-30 12:01:00,70.0,37.0,-100.00,NNW,348,5.0,9.0,30,0.00,,,0.00,467.000000,,2013-11-30 19:01:00,
2013-11-30 12:42:00,71.0,34.0,-100.00,NW,324,5.0,11.0,26,0.00,,,0.00,635.000000,,2013-11-30 19:42:00,
2013-11-30 12:52:00,71.0,34.0,-100.00,NW,324,5.0,11.0,26,0.00,,,0.00,635.000000,,2013-11-30 19:52:00,
2013-11-30 13:02:00,71.0,34.0,-100.00,NW,324,5.0,11.0,26,0.00,,,0.00,635.000000,,2013-11-30 20:02:00,
2013-11-30 13:42:00,74.0,34.0,-100.00,NNW,339,5.0,13.0,23,0.00,,,0.00,745.000000,,2013-11-30 20:42:00,
2013-11-30 13:52:00,74.0,34.0,-100.00,NNW,339,5.0,13.0,23,0.00,,,0.00,745.000000,,2013-11-30 20:52:00,
2013-11-30 14:02:00,74.0,34.0,-100.00,NNW,339,5.0,13.0,23,0.00,,,0.00,745.000000,,2013-11-30 21:02:00,
2013-11-30 14:43:00,74.0,33.0,-100.00,NNE,13,8.0,12.0,22,0.00,,,0.00,716.000000,,2013-11-30 21:43:00,
2013-11-30 14:53:00,74.0,33.0,-100.00,NNE,13,8.0,12.0,22,0.00,,,0.00,716.000000,,2013-11-30 21:53:00,
2013-11-30 15:03:00,74.0,33.0,-100.00,NNE,13,8.0,12.0,22,0.00,,,0.00,716.000000,,2013-11-30 22:03:00,
2013-11-30 15:42:00,75.0,31.0,-100.00,North,9,8.0,14.0,20,0.00,,,0.00,666.000000,,2013-11-30 22:42:00,
2013-11-30 15:52:00,75.0,31.0,-100.00,North,9,8.0,14.0,20,0.00,,,0.00,666.000000,,2013-11-30 22:52:00,
2013-11-30 16:02:00,75.0,31.0,-100.00,North,9,8.0,14.0,20,0.00,,,0.00,666.000000,,2013-11-30 23:02:00,
2013-11-30 16:42:00,75.0,31.0,-100.00,NNE,16,7.0,14.0,20,0.00,,,0.00,459.000000,,2013-11-30 23:42:00,
2013-11-30 16:53:00,75.0,31.0,-100.00,NNE,16,7.0,14.0,20,0.00,,,0.00,459.000000,,2013-11-30 23:53:00,
2013-11-30 17:02:00,75.0,31.0,-100.00,NNE,16,7.0,14.0,20,0.00,,,0.00,459.000000,,2013-12-01 00:02:00,
2013-11-30 17:42:00,75.0,32.0,-100.00,North,1,7.0,11.0,21,0.00,,,0.00,297.000000,,2013-12-01 00:42:00,
2013-11-30 17:52:00,75.0,32.0,-100.00,North,1,7.0,11.0,21,0.00,,,0.00,297.000000,,2013-12-01 00:52:00,
2013-11-30 18:01:00,75.0,32.0,-100.00,North,1,7.0,11.0,21,0.00,,,0.00,297.000000,,2013-12-01 01:01:00,
2013-11-30 18:42:00,71.0,33.0,-100.00,WSW,254,4.0,10.0,25,0.00,,,0.00,114.000000,,2013-12-01 01:42:00,
2013-11-30 18:52:00,71.0,33.0,-100.00,WSW,254,4.0,10.0,25,0.00,,,0.00,114.000000,,2013-12-01 01:52:00,
2013-11-30 19:01:00,71.0,33.0,-100.00,WSW,254,4.0,10.0,25,0.00,,,0.00,114.000000,,2013-12-01 02:01:00,
2013-11-30 19:42:00,68.0,35.0,-100.00,WNW,289,2.0,6.0,29,0.00,,,0.00,7.000000,,2013-12-01 02:42:00,
2013-11-30 19:52:00,68.0,35.0,-100.00,WNW,289,2.0,6.0,29,0.00,,,0.00,7.000000,,2013-12-01 02:52:00,
2013-11-30 20:01:00,68.0,35.0,-100.00,WNW,289,2.0,6.0,29,0.00,,,0.00,7.000000,,2013-12-01 03:01:00,
2013-11-30 20:44:00,66.0,34.0,-100.00,WNW,295,2.0,13.0,30,0.00,,,0.00,0.000000,,2013-12-01 03:44:00,
2013-11-30 20:53:00,66.0,34.0,-100.00,WNW,295,2.0,13.0,30,0.00,,,0.00,0.000000,,2013-12-01 03:53:00,
2013-11-30 21:02:00,-999.0,-99.9,-100.00,WNW,295,2.0,13.0,-999,0.00,,,0.00,0.000000,,2013-12-01 04:02:00,
2013-11-30 21:42:00,60.0,41.0,-100.00,South,191,0.0,4.0,49,0.00,,,0.00,0.000000,,2013-12-01 04:42:00,
2013-11-30 21:52:00,60.0,41.0,-100.00,South,191,0.0,4.0,49,0.00,,,0.00,0.000000,,2013-12-01 04:52:00,
2013-11-30 22:02:00,60.0,41.0,-100.00,South,191,0.0,4.0,49,0.00,,,0.00,0.000000,,2013-12-01 05:02:00,
2013-11-30 22:43:00,58.0,44.0,-100.00,ESE,105,0.0,0.0,59,0.00,,,0.00,0.000000,,2013-12-01 05:43:00,
2013-11-30 22:53:00,58.0,44.0,-100.00,ESE,105,0.0,0.0,59,0.00,,,0.00,0.000000,,2013-12-01 05:53:00,
2013-11-30 23:02:00,58.0,44.0,-100.00,ESE,105,0.0,0.0,59,0.00,,,0.00,0.000000,,2013-12-01 06:02:00,
2013-11-30 23:42:00,56.0,41.0,-100.00,East,97,0.0,4.0,57,0.00,,,0.00,0.000000,,2013-12-01 06:42:00,
2013-11-30 23:52:00,56.0,41.0,-100.00,East,97,0.0,4.0,57,0.00,,,0.00,0.000000,,2013-12-01 06:52:00,